Starlink 5225

operational
NORAD ID: 54063 Int'l Des: 2022-136 Owner: SPXS Country: US Constellation: starlink
LEOCIRCULAR

Starlink 5225について

説明を読み込み中...

リアルタイム位置

3D地球を読み込み中...

次回通過

高度履歴

Altitude vs Time

uPlot chart will show altitude changes over time

軌道要素

1 54063U 22136N 25303.98303899 .00000985 00000-0 79958-4 0 9998
2 54063 53.2166 206.3294 0001215 89.3133 270.7999 15.08842239167262
Epoch: Oct 30, 2025 • Age: 13 hours

現在のステータス

高度 542.4 km
速度 7.60 km/s
衛星直下点 38.80°N, 113.87°E
打ち上げ日 Oct 20, 2022
運用期間 3 years
タイプ internet

技術仕様

分類 Payload
質量 305.00 kg
乾燥質量 290.00 kg
総質量 305.00 kg
長さ 0.20 m
直径 2.80 m
スパン 9.00 m
形状 Box + pan
製造者 SPXS
バスタイプ Starlink
フェーズステータス In Orbit
所有者/国 SPXS/US

大規模コンステレーション

Loading constellations...